Simultaneous Nadir Overpasses (SNOs) Predictions

Prediction of SNOs between GOES-16 and METOP-C Satellite Orbit:

Table of predicted SNOs for the next 14.0 days since TLE Epoch: 9/17/2022
Index Date Time (GOES-16) GOES-16 Lat,Lon METOP-C Lat,Lon Distance(km) Time Diff (sec)
1 09/17/2022 14:41:55 -0.04, -75.21 0.63, -78.17 337.99 80
2 09/18/2022 14:23:55 -0.04, -75.21 -0.47, -73.17 231.74 80
3 09/20/2022 02:40:15 0.04, -75.20 -0.53, -77.78 293.48 80
4 09/21/2022 02:22:15 0.04, -75.21 0.58, -72.78 276.54 80
5 09/22/2022 14:38:24 -0.04, -75.24 0.45, -77.33 239.32 80
6 09/23/2022 14:17:44 -0.03, -75.25 -0.66, -72.34 331.15 80
7 09/25/2022 02:39:24 0.03, -75.25 -0.34, -76.94 192.79 80
8 09/26/2022 02:16:03 0.03, -75.26 0.77, -71.94 378.01 80
9 09/27/2022 14:37:33 -0.03, -75.30 0.24, -76.50 136.68 80
10 09/28/2022 14:14:12 -0.03, -75.32 -0.87, -71.50 434.32 80
11 09/30/2022 02:35:53 0.03, -75.32 -0.13, -76.11 89.08 80
12 10/01/2022 02:12:32 0.03, -75.34 0.98, -71.11 481.93 80
